Other Public Products
Issued by NWS Grand Forks, ND

Home | Current Version | Previous Version | Graphics & Text | Print | Product List | Glossary On
Versions: 1 2 3 4 5 6 7 8 9 10 11 12 13 14 15 16 17 18 19 20 21 22 23 24 25 26 27 28 29 30 31 32 33 34 35 36 37 38 39 40 41 42 43 44 45 46 47 48 49 50
000
FPUS83 KFGF 310810
OPUFGF
PRAIRIE TO PINES WEATHER ROUNDUP
NATIONAL WEATHER SERVICE EASTERN NORTH DAKOTA/GRAND FORKS ND
300 AM CDT THU JUL 31 2014

 **SATELLITE DATA USED TO AUGMENT SKY COVER AT AUTOMATED STATIONS**
 *****  WEATHER ACROSS EASTERN NORTH DAKOTA  *****

CITY           SKY/WX    TMP DP  RH WIND       PRES   REMARKS
GRAND FORKS    CLEAR     59  56  89 SW6       30.02F
GRAND FORKS AF CLEAR     59  58  99 W2        30.04F
GRAND CITY NWS   N/A     61 N/A N/A MISG        N/A
BUXTON         NOT AVBL
DEVILS LAKE    CLEAR     63  57  82 W6        30.06F
FARGO          CLEAR     59  55  87 W3        30.04F
WAHPETON ARPT  MOSUNNY   55  50  82 W3        30.05S
$$

 *****  WEATHER ACROSS CENTRAL AND WESTERN NORTH DAKOTA  *****

CITY           SKY/WX    TMP DP  RH WIND       PRES   REMARKS
JAMESTOWN      PTCLDY    58  54  86 CALM      30.08S
BISMARCK       MOCLDY    62  56  80 CALM      30.11S
MINOT          PTCLDY    59  54  83 SW9       30.10F
MINOT AFB      PTCLDY    56  56  97 W8        30.10S
GARRISON         N/A     58  57  97 NW3       30.12R
WILLISTON      LGT RAIN  65  58  78 N5        30.15F
DICKINSON      MOCLDY    60  54  80 N7        30.15R
HETTINGER      CLEAR     50  47  89 CALM      30.14S
$$

 *****  OTHER OBSERVATIONS NORTHEAST NORTH DAKOTA  *****

CITY           SKY/WX    TMP DP  RH WIND       PRES   REMARKS
WALHALLA       NOT AVBL
LANGDON        FAIR      52  50  93 W5        30.07S
CAVALIER       FAIR      61  57  88 CALM      30.03S
GRAFTON        FAIR      61  59  94 W5        30.02F
CANDO          FAIR      55  54  94 W5        30.08S
FORT TOTTEN    NOT AVBL
ROLLA          FAIR      55  55 100 W3        30.10S
RUGBY          FAIR      55  55 100 CALM      30.08F
 ***** THE ABOVE OBSERVATIONS ARE NON NWS ARE NOT QUALITY
        CONTROLLED AND MAY MIS-REPORT RAIN FOR SNOW...
$$

 *****  OTHER OBSERVATIONS SOUTHEAST NORTH DAKOTA *****

CITY           SKY/WX    TMP DP  RH WIND       PRES   REMARKS
COOPERSTOWN    NOT AVBL
VALLEY CITY    PTSUNNY   55  55 100 CALM      30.07F
OAKES          NOT AVBL
GWINNER        SUNNY     59  59 100 W8        30.08S
BUFFALO        NOT AVBL
WYNDMERE       NOT AVBL
 ***** THE ABOVE OBSERVATIONS ARE NON NWS ARE NOT QUALITY
       CONTROLLED AND MAY MIS-REPORT RAIN FOR SNOW...
$$

  *****  WEATHER ACROSS NORTHERN MINNESOTA  *****

CITY           SKY/WX    TMP DP  RH WIND       PRES   REMARKS
FLAG ISLAND    CLEAR     68  63  83 NW5       29.99S
WARROAD        CLEAR     63  57  82 W3        30.01S
ROSEAU         CLEAR     63  57  82 W5        30.01F
HALLOCK        CLEAR     61  57  88 CALM      30.01F
THF RVR FALLS  CLEAR     61  57  88 CALM      30.03F
HALSTAD          N/A     55  54  96 W5          N/A
FOSSTON        CLEAR     54  52  94 S5        30.05S
BAUDETTE       CLEAR     62  58  86 W5        30.01S
WASKISH        CLEAR     64  59  82 NW7       30.01S
CROOKSTON      CLEAR     59  55  88 SW3       30.04S
$$
  *****  WEATHER ACROSS CENTRAL AND WEST MINNESOTA  *****

CITY           SKY/WX    TMP DP  RH WIND       PRES   REMARKS
BEMIDJI        CLEAR     58  53  85 W5        30.03F
PARK RAPIDS    CLEAR     53  52  96 W5        30.05S
WADENA         CLEAR     54  52  94 CALM      30.05F
DETROIT LAKES  CLEAR     59  57  94 CALM      30.07S
MOORHEAD       CLEAR     61  61 100 CALM      30.05S
FERGUS FALLS   CLEAR     61  57  88 CALM      30.05F
ELBOW LAKE     FAIR      58  55  90 CALM      30.05F
MORRIS MN      CLEAR     55  54  94 CALM      30.05F
STAPLES        CLEAR     55  52  88 CALM      30.05F
WHEATON        PTCLDY    57  54  88 W3        30.07F
$$
  *****  WEATHER ELSEWHERE ACROSS MINNESOTA  *****

CITY           SKY/WX    TMP DP  RH WIND       PRES   REMARKS
DULUTH         MOCLDY    62  56  80 N6        29.99F
INTRNTL FALLS  CLEAR     49  48  97 CALM      29.99S
ELY            CLEAR     52  50  93 CALM      29.99S FOG
CLOQUET        PTCLDY    61  55  82 NW6       30.00F
BRAINERD       CLEAR     54  53  97 S3        30.04F
HIBBING        FOG       55  54  96 CALM      30.00S VSB 1
ALEXANDRIA     PTCLDY    60  57  89 CALM      30.07F
SAINT CLOUD    CLEAR     58  54  86 CALM      30.04F
MINNEAPOLIS    CLEAR     66  58  75 CALM      30.03F
$$

  *****  WEATHER ACROSS SOUTH DAKOTA  *****

CITY           SKY/WX    TMP DP  RH WIND       PRES   REMARKS
SIOUX FALLS    CLEAR     58  55  90 CALM      30.09F
BROOKINGS      NOT AVBL
WATERTOWN      CLEAR     58  54  86 CALM      30.09F
HURON          PTCLDY    62  57  83 SE3       30.07F
SISSETON         N/A     56  54  93 W3        30.05F
ABERDEEN       CLOUDY    60  57  89 CALM      30.08S
MITCHELL       RAIN      66  60  81 S5        30.08S
PIERRE         CLEAR     63  56  78 E10       30.05F
MOBRIDGE       CLEAR     60  54  80 SE6       30.07F
RAPID CITY     CLEAR     58  49  72 NW7       30.16F
$$

  *****  SOME WEATHER IN NEARBY STATES *****

CITY           SKY/WX    TMP DP  RH WIND       PRES   REMARKS
GLASGOW MT     PTCLDY    66  49  54 E10       30.03F
GREAT FALLS MT CLEAR     63  44  50 SW6       30.14S
CHEYENNE WY    CLOUDY    56  52  86 W5        30.32F
SCOTTSBLUFF NE CLOUDY    61  58  90 N3        30.21F
OMAHA NE       PTCLDY    59  56  89 CALM      30.11S
DES MOINES IA  CLEAR     64  57  78 CALM      30.08F
DAVENPORT IA   CLEAR     59  57  93 W5        30.06F
CHICAGO IL     CLEAR     60  55  83 CALM      30.02F
EAU CLAIRE WI  CLEAR     60  58  92 SW6       30.00F
LA CROSSE WI   CLEAR     64  61  90 SE6       30.01F
$$

  *****  SOME NATIONAL WEATHER *****

CITY           SKY/WX    TMP DP  RH WIND       PRES   REMARKS
LA GUARDIA NY  CLEAR     71  54  54 SW7       30.05S
RALEIGH NC     MOCLDY    68  63  84 CALM      30.09S
ATLANTA GA     CLOUDY    72  60  66 N5        30.04F
NEW ORLEANS LA CLEAR     75  62  64 E3        30.00F
OKLAHOMA CITY  DRIZZLE   69  66  90 NE13      30.05S FOG
ALBUQUERQUE NM CLOUDY    67  58  72 E16       30.28R
SALT LAKE CITY PTCLDY    68  55  63 NW5       30.17S
LOS ANGELES CA PTCLDY    68  64  87 W5        29.93F
BOISE ID       CLEAR     77  46  33 E7        30.10F
SEATTLE WA     CLEAR     68  46  45 NE12      30.12R
$$

*** WEATHER ACROSS MANITOBA...SASKATCHEWAN AND ONTARIO ***
                ***ONTARIO***

CITY           SKY/WX    TMP DP  RH WIND       PRES   REMARKS
GERALDTON      MOCLDY    54  50  87 W3        29.89F
THUNDER BAY    PTCLDY    54  52  94 VRB2      29.93S
SIOUX LOOKOUT  CLEAR     48  48 100 NE3       29.98F
TORONTO        MOCLDY    57  52  82 NW9       29.98R
BIG TROUT LK   CLOUDY    54  46  76 N9        29.97S
PICKLE LAKE    NOT AVBL
DRYDEN         FOG       57  55  94 NE2       29.99F VSB 3/4
KENORA         MOCLDY    64  52  63 N5        30.02S
$$
                *** MANITOBA***

CITY           SKY/WX    TMP DP  RH WIND       PRES   REMARKS
BRANDON        CLEAR     57  55  94 W6        30.08S
DAUPHIN        CLEAR     59  55  88 W9        30.06S
ISLAND LAKE    CLEAR     59  52  77 NE3       30.06R
PILOT MOUND      N/A     55  54  94 NW2         N/A
THE PAS        CLEAR     66  59  77 CALM      30.03S
THOMPSON       PTCLDY    63  54  72 E3        30.06S
WINNIPEG       MOCLDY    57  55  94 NW5       30.02F
LYNN LAKE      CLEAR     63  54  72 E2        30.06S
CHURCHILL      PTCLDY    50  46  87 S7        30.12S
GILLAM         CLOUDY    50  50 100 E3        30.10S
$$
                ***SASKATCHEWAN***

CITY           SKY/WX    TMP DP  RH WIND       PRES   REMARKS
ESTEVAN        MOCLDY    63  59  88 S5        30.11F
KINDERSLEY     PTCLDY    63  61  94 NE8       30.00F
LLOYDMINSTER   CLEAR     61  61 100 E5        30.05S
PRINCE ALBERT  CLEAR     57  57 100 NE2       30.07S FOG
REGINA         CLEAR     63  57  82 E12       30.07F
YORKTON        CLEAR     64  57  77 SW9       30.09S



USA.gov is the U.S. government's official web portal to all federal, state and local government web resources and services.